This demonstration page uses our WeatherBlox Daily Observations layout. Learn more.

Left ArrowRight Arrow

39.12711, -84.51439

Hourly Observations for September 26, 2016

Temp ( °F °C ) Dew Point ( °F °C ) Humidity (%) Winds ( mph kmh ) Pressure ( in mb ) Visibility ( mi km ) Precip ( " mm )
12:53 am 00:53 Clear with Mist and Fog 66 18.9 66 18.9 100 100 Calm 30.01 1016 4 6 0.00 0.00
1:08 am 01:08 Clear with Mist and Fog 65 18.3 65 18.3 100 100 Calm 30.00 1016 2 3 0.00 0.00
1:21 am 01:21 Clear with Mist and Fog 66 18.9 66 18.9 100 100 Calm 30.00 1016 3 5 0.00 0.00
1:53 am 01:53 Clear with Mist and Fog 65 18.3 65 18.3 100 100 Calm 29.99 1016 3 5 0.00 0.00
1:58 am 01:58 Clear with Mist and Fog 64 18 64 18 100 100 Calm 29.97 1015 2 2 0.00 0.00
2:19 am 02:19 Mostly Cloudy with Mist and Fog 64 17.8 64 17.8 100 100 Calm 29.97 1015 1 2 0.00 0.00
2:22 am 02:22 Mostly Clear with Mist and Fog 64 17.8 64 17.8 100 100 Calm 29.97 1015 2 3 0.00 0.00
2:32 am 02:32 Mostly Cloudy with Mist and Fog 64 18 64 18 100 100 Calm 29.97 1015 1 2 0.00 0.00
2:39 am 02:39 Mostly Cloudy with Mist and Fog 64 17.8 64 17.8 100 100 Calm 29.97 1015 1 1 0.00 0.00
2:41 am 02:41 Clear with Mist and Fog 65 18.3 65 18.3 100 100 SE 3 6 29.97 1015 2 2 0.00 0.00
2:44 am 02:44 Clear with Mist and Fog 64 18 64 18 100 100 Calm 29.97 1015 3 5 0.00 0.00
2:53 am 02:53 Clear with Mist and Fog 65 18.3 65 18.3 100 100 Calm 29.97 1015 3 5 0.00 0.00
2:58 am 02:58 Clear with Mist and Fog 63 17 63 17 100 100 Calm 29.94 1014 1 1 0.00 0.00
3:01 am 03:01 Mostly Cloudy with Fog 63 17.2 63 17.2 100 100 Calm 29.94 1014 0 0 0.00 0.00
3:10 am 03:10 Mostly Cloudy with Mist and Fog 64 18 64 18 100 100 Calm 29.94 1014 1 2 0.00 0.00
3:16 am 03:16 Mostly Clear with Mist and Fog 64 17.8 64 17.8 100 100 Calm 29.94 1014 2 3 0.00 0.00
3:35 am 03:35 Clear with Mist and Fog 63 17.2 63 17.2 100 100 Calm 29.94 1014 1 1 0.00 0.00
3:53 am 03:53 Clear with Mist and Fog 65 18.3 65 18.3 100 100 Calm 29.95 1014 2 3 0.00 0.00
3:59 am 03:59 Clear with Mist and Fog 64 17.8 64 17.8 100 100 Calm 29.94 1014 1 1 0.00 0.00
4:12 am 04:12 Clear with Mist and Fog 64 18 64 18 100 100 Calm 29.94 1014 2 3 0.00 0.00
4:31 am 04:31 Clear with Mist and Fog 65 18.3 65 18.3 100 100 Calm 29.94 1014 4 6 0.00 0.00
4:46 am 04:46 Clear with Mist and Fog 64 18 64 18 100 100 Calm 29.91 1013 2 3 0.00 0.00
4:53 am 04:53 Clear with Mist and Fog 64 17.8 64 17.8 100 100 Calm 29.94 1014 3 5 0.00 0.00
5:11 am 05:11 Clear with Mist and Fog 65 18.3 65 18.3 100 100 Calm 29.91 1013 3 4 0.00 0.00
5:19 am 05:19 Clear with Mist and Fog 64 17.8 64 17.8 100 100 Calm 29.91 1013 3 5 0.00 0.00
5:41 am 05:41 Clear with Mist and Fog 64 17.8 64 17.8 100 100 Calm 29.91 1013 2 3 0.00 0.00
5:53 am 05:53 Clear with Mist and Fog 64 17.8 64 17.8 100 100 Calm 29.93 1014 3 4 0.00 0.00
6:03 am 06:03 Clear with Mist and Fog 64 18 64 18 100 100 Calm 29.91 1013 1 2 0.00 0.00
6:18 am 06:18 Mostly Clear with Mist and Fog 64 18 64 18 100 100 Calm 29.91 1013 2 3 0.00 0.00
6:27 am 06:27 Mostly Cloudy with Mist and Fog 62 16.7 62 16.7 100 100 Calm 29.91 1013 1 2 0.00 0.00
6:38 am 06:38 Mostly Clear with Mist and Fog 64 17.8 64 17.8 100 100 Calm 29.91 1013 2 3 0.00 0.00
6:53 am 06:53 Clear with Mist and Fog 64 17.8 64 17.8 100 100 Calm 29.93 1014 5 8 0.00 0.00
7:53 am 07:53 Mostly Cloudy with Mist and Fog 65 18.3 65 18.3 100 100 Calm 29.97 1015 5 8 0.00 0.00
8:53 am 08:53 Cloudy 67 19.4 61 16.1 81 81 NW 15 24 30.03 1017 10 16 0.00 0.00
9:15 am 09:15 Cloudy 67 19.4 58 14.4 73 73 NNW 9 15 30.00 1016 10 16 0.00 0.00
9:53 am 09:53 Mostly Cloudy 67 19.4 57 13.9 71 71 N 8 13 30.02 1017 10 16 0.00 0.00
10:53 am 10:53 Cloudy with Heavy Rain 65 18.3 59 15 81 81 W 9 15 30.05 1018 4 6 0.01 0.25
11:53 am 11:53 Cloudy with Rain 63 17.2 62 16.7 97 97 W 7 11 30.08 1019 4 6 0.19 4.83
12:53 pm 12:53 Cloudy 62 16.7 60 15.6 93 93 VRB 3 6 30.05 1018 10 16 0.03 0.76
1:53 pm 13:53 Mostly Cloudy 64 17.8 60 15.6 87 87 W 12 19 30.06 1018 10 16 0.00 0.00
2:53 pm 14:53 Mostly Cloudy 66 18.9 59 15 78 78 W 9 15 30.04 1017 10 16 0.00 0.00
3:00 pm 15:00 Partly Cloudy 66 19 59 15 78 78 WNW 8 13 30.00 1016 10 16 0.00 0.00
3:53 pm 15:53 Partly Cloudy 68 20 55 12.8 63 63 VRB 5 7 30.02 1017 10 16 0.00 0.00
4:53 pm 16:53 Mostly Sunny 68 20 53 11.7 59 59 W 9 15 30.02 1017 10 16 0.00 0.00
5:53 pm 17:53 Mostly Sunny 67 19.4 51 10.6 57 57 W 10 17 30.02 1017 10 16 0.00 0.00
6:53 pm 18:53 Sunny 65 18.3 52 11.1 63 63 W 8 13 30.02 1017 10 16 0.00 0.00
7:53 pm 19:53 Clear 57 13.9 53 11.7 87 87 S 7 11 30.04 1017 10 16 0.00 0.00
8:53 pm 20:53 Clear 56 13.3 54 12.2 93 93 SSW 6 9 30.05 1018 10 16 0.00 0.00
9:53 pm 21:53 Clear 57 13.9 54 12.2 90 90 Calm 30.06 1018 10 16 0.00 0.00
10:53 pm 22:53 Clear 54 12.2 53 11.7 97 97 S 5 7 30.06 1018 10 16 0.00 0.00
11:53 pm 23:53 Clear 53 11.7 53 11.7 100 100 SSW 3 6 30.06 1018 10 16 0.00 0.00

Powered by AerisWeather